Weather History for Poplar Bluff, MO

Change the Weather History Date:

Friday, October 5, 2012

  Actual Average Record
Temperature  
Mean Temperature 54 °F -  
Max Temperature 64 °F 77 °F 96 °F (1938)
Min Temperature 44 °F 49 °F 34 °F (1999)
Degree Days  
Heating Degree Days 11    
Growing Degree Days 4 (Base 50)    
Moisture  
Dew Point 48 °F    
Average Humidity 80    
Maximum Humidity 93    
Minimum Humidity 65    
Precipitation  
Precipitation 0.38 in - - ()
Sea Level Pressure  
Sea Level Pressure 30.11 in    
Wind  
Wind Speed 8 mph (North)    
Max Wind Speed 21 mph    
Max Gust Speed 32 mph    
Visibility 9 miles    
Events Rain , Thunderstorm    
Averages and records for this station are not official NWS values.
T = Trace of Precipitation, MM = Missing Value Source: NWS Daily Summary

Daily Weather History Graph

Daily Weather History Graph

Search for Another Location

Airport:

Trip Planner

Search our weather history database for the weather conditions in past years. The results will help you decide how hot, cold, wet, or windy it might be!

Date:

Astronomy

Oct. 05, 2012 Rise Set
Actual Time 7:00 AM CDT 6:38 PM CDT
Civil Twilight 6:34 AM CDT 7:03 PM CDT
Nautical Twilight 6:04 AM CDT 7:33 PM CDT
Astronomical Twilight 5:34 AM CDT 8:03 PM CDT
Moon 10:08 PM CDT (10/5) 12:01 PM CDT (10/5)
Length of Visible Light 12h 29m
Length of Day
11h 37m
Waning Gibbous, 74% of the Moon is Illuminated
Oct 5
Waning Gibbous
Oct 8
Last Quarter
Oct 15
New
Oct 21
First Quarter
Oct 29
Full

Hourly Weather History & Observations

Time (CDT) Temp. Windchill Dew Point Humidity Pressure Visibility Wind Dir Wind Speed Gust Speed Precip Events Conditions
12:53 AM 57.0 °F - 55.0 °F 93% 30.13 in 8.0 mi Calm Calm - N/A   Clear
1:53 AM 57.9 °F - 55.9 °F 93% 30.12 in 6.0 mi Calm Calm - N/A   Clear
3:53 AM 57.9 °F - 55.0 °F 90% 30.10 in 7.0 mi NNW 4.6 mph - N/A   Clear
4:53 AM 57.9 °F - 55.0 °F 90% 30.12 in 8.0 mi North 4.6 mph - N/A   Clear
5:53 AM 57.0 °F - 53.1 °F 87% 30.13 in 10.0 mi NNE 9.2 mph - N/A   Clear
6:53 AM 55.0 °F - 51.1 °F 86% 30.13 in 10.0 mi NNE 5.8 mph - N/A   Clear
7:53 AM 55.9 °F - 50.0 °F 80% 30.14 in 10.0 mi NE 8.1 mph - N/A   Clear
8:53 AM 57.0 °F - 50.0 °F 77% 30.16 in 10.0 mi NNE 9.2 mph - N/A   Clear
9:53 AM 60.1 °F - 50.0 °F 69% 30.14 in 10.0 mi NNE 9.2 mph - N/A   Clear
10:53 AM 62.1 °F - 50.0 °F 65% 30.11 in 10.0 mi East 6.9 mph - N/A   Mostly Cloudy
11:53 AM 64.0 °F - 52.0 °F 65% 30.09 in 10.0 mi NE 4.6 mph - N/A   Scattered Clouds
12:53 PM 64.0 °F - 53.1 °F 67% 30.08 in 10.0 mi North 6.9 mph - N/A   Mostly Cloudy
1:53 PM 63.0 °F - 52.0 °F 67% 30.05 in 10.0 mi North 9.2 mph - N/A   Mostly Cloudy
2:14 PM 62.6 °F - 51.8 °F 68% 30.04 in 10.0 mi North 8.1 mph - N/A   Mostly Cloudy
2:26 PM 62.6 °F - 51.8 °F 68% 30.03 in 10.0 mi North 8.1 mph - N/A   Overcast
2:37 PM 62.6 °F - 51.8 °F 68% 30.03 in 10.0 mi North 9.2 mph - 0.00 in   Overcast
2:53 PM 61.0 °F - 51.1 °F 70% 30.03 in 10.0 mi North 12.7 mph - 0.00 in   Overcast
3:15 PM 59.0 °F - 51.8 °F 77% 30.03 in 10.0 mi North 11.5 mph - N/A   Overcast
3:53 PM 55.9 °F - 50.0 °F 80% 30.02 in 5.0 mi North 13.8 mph 18.4 mph 0.02 in Rain Rain
4:02 PM 55.4 °F - 50.0 °F 82% 30.04 in 6.0 mi North 11.5 mph - 0.01 in Rain Light Rain
4:53 PM 53.1 °F - 50.0 °F 89% 30.06 in 10.0 mi North 13.8 mph - 0.03 in Rain Light Rain
5:53 PM 51.1 °F - 46.9 °F 86% 30.10 in 10.0 mi North 12.7 mph 21.9 mph 0.08 in Rain Light Rain
6:09 PM 50.0 °F - 44.6 °F 82% 30.11 in 6.0 mi North 20.7 mph 29.9 mph 0.02 in Rain Light Rain
6:38 PM 48.2 °F - 44.6 °F 87% 30.12 in 10.0 mi North 13.8 mph 27.6 mph 0.07 in Rain Light Rain
6:53 PM 48.9 °F - 44.1 °F 83% 30.12 in 10.0 mi North 16.1 mph 23.0 mph 0.08 in Rain Light Rain
7:19 PM 48.2 °F - 44.6 °F 87% 30.13 in 10.0 mi North 10.4 mph - N/A Rain Light Rain
7:38 PM 48.2 °F - 42.8 °F 82% 30.12 in 10.0 mi North 18.4 mph 32.2 mph N/A Rain Light Rain
7:45 PM 48.2 °F - 42.8 °F 82% 30.13 in 10.0 mi North 15.0 mph 25.3 mph 0.00 in   Overcast
7:53 PM 46.9 °F - 42.1 °F 83% 30.15 in 10.0 mi North 18.4 mph 26.5 mph 0.00 in   Overcast
8:53 PM 46.0 °F 41.0 °F 41.0 °F 83% 30.17 in 10.0 mi North 10.4 mph - 0.00 in Rain Light Rain
9:04 PM 46.4 °F 41.1 °F 41.0 °F 81% 30.18 in 4.0 mi North 11.5 mph - 0.04 in Rain , Thunderstorm Heavy Rain
9:14 PM 44.6 °F 38.1 °F 41.0 °F 87% 30.15 in 2.5 mi NNE 13.8 mph 19.6 mph 0.16 in Rain , Thunderstorm Heavy Thunderstorms and Rain
9:20 PM 44.6 °F 38.8 °F 41.0 °F 87% 30.16 in 6.0 mi NNE 11.5 mph 19.6 mph 0.17 in Rain Light Rain
9:53 PM 46.0 °F 41.4 °F 41.0 °F 83% 30.17 in 10.0 mi North 9.2 mph - 0.17 in   Overcast
10:53 PM 46.0 °F 41.4 °F 39.9 °F 79% 30.20 in 10.0 mi North 9.2 mph - N/A   Overcast
11:53 PM 45.0 °F 42.6 °F 41.0 °F 86% 30.20 in 10.0 mi NNW 4.6 mph - N/A   Partly Cloudy